Year,Month,Day,Hour,Minute,Value (Times are PST for windspeed in km/hr)
2017,08,14,00,00,9.50
2017,08,14,00,01,7.30
2017,08,14,00,02,9.40
2017,08,14,00,03,7.70
2017,08,14,00,04,8.00
2017,08,14,00,05,4.20
2017,08,14,00,06,6.20
2017,08,14,00,07,3.20
2017,08,14,00,08,7.80
2017,08,14,00,09,8.50
2017,08,14,00,10,4.90
2017,08,14,00,11,7.50
2017,08,14,00,12,7.20
2017,08,14,00,13,9.40
2017,08,14,00,14,3.80
2017,08,14,00,15,6.40
2017,08,14,00,16,5.50
2017,08,14,00,17,7.60
2017,08,14,00,18,5.50
2017,08,14,00,19,7.50
2017,08,14,00,20,7.70
2017,08,14,00,21,6.80
2017,08,14,00,22,7.50
2017,08,14,00,23,5.00
2017,08,14,00,24,6.70
2017,08,14,00,25,6.40
2017,08,14,00,26,8.30
2017,08,14,00,27,10.80
2017,08,14,00,28,9.70
2017,08,14,00,29,9.20
2017,08,14,00,30,4.70
2017,08,14,00,31,5.90
2017,08,14,00,32,6.40
2017,08,14,00,33,5.00
2017,08,14,00,34,7.70
2017,08,14,00,35,6.30
2017,08,14,00,36,6.50
2017,08,14,00,37,10.40
2017,08,14,00,38,6.80
2017,08,14,00,39,5.90
2017,08,14,00,40,6.20
2017,08,14,00,41,5.50
2017,08,14,00,42,6.40
2017,08,14,00,43,7.90
2017,08,14,00,44,8.90
2017,08,14,00,45,7.60
2017,08,14,00,46,5.00
2017,08,14,00,47,2.70
2017,08,14,00,48,5.50
2017,08,14,00,49,7.50
2017,08,14,00,50,9.10
2017,08,14,00,51,4.50
2017,08,14,00,52,5.30
2017,08,14,00,53,5.30
2017,08,14,00,54,3.10
2017,08,14,00,55,6.70
2017,08,14,00,56,5.40
2017,08,14,00,57,2.00
2017,08,14,00,58,1.20
2017,08,14,00,59,2.30
2017,08,14,01,00,4.30
2017,08,14,01,01,7.90
2017,08,14,01,02,2.40
2017,08,14,01,03,7.40
2017,08,14,01,04,10.60
2017,08,14,01,05,6.90
2017,08,14,01,06,4.90
2017,08,14,01,07,3.40
2017,08,14,01,08,5.20
2017,08,14,01,09,2.60
2017,08,14,01,10,6.70
2017,08,14,01,11,3.80
2017,08,14,01,12,4.60
2017,08,14,01,13,4.30
2017,08,14,01,14,7.90
2017,08,14,01,15,4.20
2017,08,14,01,16,3.80
2017,08,14,01,17,4.90
2017,08,14,01,18,5.40
2017,08,14,01,19,6.70
2017,08,14,01,20,5.20
2017,08,14,01,21,3.50
2017,08,14,01,22,4.20
2017,08,14,01,23,2.60
2017,08,14,01,24,3.10
2017,08,14,01,25,9.70
2017,08,14,01,26,7.80
2017,08,14,01,27,8.60
2017,08,14,01,28,5.30
2017,08,14,01,29,5.50
2017,08,14,01,30,7.30
2017,08,14,01,31,3.50
2017,08,14,01,32,3.00
2017,08,14,01,33,0.60
2017,08,14,01,34,1.50
2017,08,14,01,35,4.80
2017,08,14,01,36,2.90
2017,08,14,01,37,6.60
2017,08,14,01,38,8.10
2017,08,14,01,39,6.20
2017,08,14,01,40,5.70
2017,08,14,01,41,4.30
2017,08,14,01,42,1.50
2017,08,14,01,43,2.60
2017,08,14,01,44,5.60
2017,08,14,01,45,2.20
2017,08,14,01,46,3.80
2017,08,14,01,47,7.80
2017,08,14,01,48,5.10
2017,08,14,01,49,6.20
2017,08,14,01,50,2.60
2017,08,14,01,51,4.20
2017,08,14,01,52,5.00
2017,08,14,01,53,5.90
2017,08,14,01,54,3.50
2017,08,14,01,55,7.40
2017,08,14,01,56,6.70
2017,08,14,01,57,6.30
2017,08,14,01,58,5.30
2017,08,14,01,59,2.10
2017,08,14,02,00,1.60
2017,08,14,02,01,2.70
2017,08,14,02,02,3.50
2017,08,14,02,03,1.50
2017,08,14,02,04,7.10
2017,08,14,02,05,5.10
2017,08,14,02,06,4.40
2017,08,14,02,07,1.50
2017,08,14,02,08,3.80
2017,08,14,02,09,3.00
2017,08,14,02,10,1.20
2017,08,14,02,11,3.70
2017,08,14,02,12,5.00
2017,08,14,02,13,4.70
2017,08,14,02,14,4.60
2017,08,14,02,15,3.00
2017,08,14,02,16,3.10
2017,08,14,02,17,1.70
2017,08,14,02,18,2.50
2017,08,14,02,19,5.90
2017,08,14,02,20,8.00
2017,08,14,02,21,3.90
2017,08,14,02,22,5.20
2017,08,14,02,23,6.30
2017,08,14,02,24,3.90
2017,08,14,02,25,5.40
2017,08,14,02,26,4.70
2017,08,14,02,27,3.00
2017,08,14,02,28,2.90
2017,08,14,02,29,5.10
2017,08,14,02,30,1.80
2017,08,14,02,31,3.40
2017,08,14,02,32,7.10
2017,08,14,02,33,3.80
2017,08,14,02,34,3.10
2017,08,14,02,35,1.20
2017,08,14,02,36,2.40
2017,08,14,02,37,5.30
2017,08,14,02,38,6.10
2017,08,14,02,39,6.80
2017,08,14,02,40,4.70
2017,08,14,02,41,3.40
2017,08,14,02,42,2.80
2017,08,14,02,43,4.30
2017,08,14,02,44,5.00
2017,08,14,02,45,2.40
2017,08,14,02,46,4.30
2017,08,14,02,47,2.00
2017,08,14,02,48,2.80
2017,08,14,02,49,2.50
2017,08,14,02,50,3.40
2017,08,14,02,51,1.00
2017,08,14,02,52,8.30
2017,08,14,02,53,5.60
2017,08,14,02,54,4.40
2017,08,14,02,55,9.10
2017,08,14,02,56,6.30
2017,08,14,02,57,4.10
2017,08,14,02,58,4.10
2017,08,14,02,59,3.90
2017,08,14,03,00,1.20
2017,08,14,03,01,4.70
2017,08,14,03,02,1.80
2017,08,14,03,03,6.90
2017,08,14,03,04,3.10
2017,08,14,03,05,3.70
2017,08,14,03,06,6.00
2017,08,14,03,07,5.80
2017,08,14,03,08,3.40
2017,08,14,03,09,3.10
2017,08,14,03,10,5.10
2017,08,14,03,11,4.40
2017,08,14,03,12,1.20
2017,08,14,03,13,1.70
2017,08,14,03,14,2.80
2017,08,14,03,15,0.70
2017,08,14,03,16,2.20
2017,08,14,03,17,0.70
2017,08,14,03,18,4.80
2017,08,14,03,19,7.10
2017,08,14,03,20,4.50
2017,08,14,03,21,7.50
2017,08,14,03,22,6.20
2017,08,14,03,23,4.40
2017,08,14,03,24,5.30
2017,08,14,03,25,4.10
2017,08,14,03,26,6.30
2017,08,14,03,27,6.00
2017,08,14,03,28,3.00
2017,08,14,03,29,6.60
2017,08,14,03,30,8.30
2017,08,14,03,31,6.40
2017,08,14,03,32,5.60
2017,08,14,03,33,5.30
2017,08,14,03,34,2.90
2017,08,14,03,35,0.90
2017,08,14,03,36,3.40
2017,08,14,03,37,5.70
2017,08,14,03,38,4.40
2017,08,14,03,39,5.00
2017,08,14,03,40,2.70
2017,08,14,03,41,2.00
2017,08,14,03,42,4.90
2017,08,14,03,43,2.40
2017,08,14,03,44,5.00
2017,08,14,03,45,4.10
2017,08,14,03,46,0.70
2017,08,14,03,47,4.90
2017,08,14,03,48,2.10
2017,08,14,03,49,5.10
2017,08,14,03,50,2.40
2017,08,14,03,51,2.60
2017,08,14,03,52,1.80
2017,08,14,03,53,0.40
2017,08,14,03,54,1.50
2017,08,14,03,55,2.00
2017,08,14,03,56,1.20
2017,08,14,03,57,4.30
2017,08,14,03,58,2.10
2017,08,14,03,59,0.00
2017,08,14,04,00,1.00
2017,08,14,04,01,4.20
2017,08,14,04,02,2.90
2017,08,14,04,03,0.00
2017,08,14,04,04,0.00
2017,08,14,04,05,0.20
2017,08,14,04,06,0.50
2017,08,14,04,07,2.60
2017,08,14,04,08,0.70
2017,08,14,04,09,3.90
2017,08,14,04,10,4.70
2017,08,14,04,11,1.80
2017,08,14,04,12,0.40
2017,08,14,04,13,1.30
2017,08,14,04,14,3.40
2017,08,14,04,15,1.00
2017,08,14,04,16,1.70
2017,08,14,04,17,2.10
2017,08,14,04,18,2.40
2017,08,14,04,19,1.00
2017,08,14,04,20,1.60
2017,08,14,04,21,1.00
2017,08,14,04,22,0.20
2017,08,14,04,23,0.70
2017,08,14,04,24,0.00
2017,08,14,04,25,1.20
2017,08,14,04,26,0.20
2017,08,14,04,27,0.00
2017,08,14,04,28,0.30
2017,08,14,04,29,0.00
2017,08,14,04,30,0.00
2017,08,14,04,31,0.00
2017,08,14,04,32,0.50
2017,08,14,04,33,2.00
2017,08,14,04,34,0.00
2017,08,14,04,35,0.00
2017,08,14,04,36,0.00
2017,08,14,04,37,1.50
2017,08,14,04,38,2.00
2017,08,14,04,39,1.10
2017,08,14,04,40,1.30
2017,08,14,04,41,3.30
2017,08,14,04,42,0.50
2017,08,14,04,43,1.10
2017,08,14,04,44,0.40
2017,08,14,04,45,0.50
2017,08,14,04,46,2.30
2017,08,14,04,47,1.80
2017,08,14,04,48,2.10
2017,08,14,04,49,0.10
2017,08,14,04,50,0.70
2017,08,14,04,51,0.00
2017,08,14,04,52,1.20
2017,08,14,04,53,0.00
2017,08,14,04,54,0.30
2017,08,14,04,55,2.70
2017,08,14,04,56,1.10
2017,08,14,04,57,0.00
2017,08,14,04,58,0.00
2017,08,14,04,59,0.40
2017,08,14,05,00,0.00
2017,08,14,05,01,0.00
2017,08,14,05,02,2.00
2017,08,14,05,03,1.70
2017,08,14,05,04,0.50
2017,08,14,05,05,0.10
2017,08,14,05,06,0.40
2017,08,14,05,07,0.00
2017,08,14,05,08,1.30
2017,08,14,05,09,2.80
2017,08,14,05,10,1.40
2017,08,14,05,11,0.00
2017,08,14,05,12,0.00
2017,08,14,05,13,0.40
2017,08,14,05,14,1.90
2017,08,14,05,15,0.40
2017,08,14,05,16,0.00
2017,08,14,05,17,0.00
2017,08,14,05,18,0.00
2017,08,14,05,19,0.00
2017,08,14,05,20,0.00
2017,08,14,05,21,0.00
2017,08,14,05,22,0.00
2017,08,14,05,23,0.00
2017,08,14,05,24,0.00
2017,08,14,05,25,0.00
2017,08,14,05,26,0.00
2017,08,14,05,27,0.00
2017,08,14,05,28,0.00
2017,08,14,05,29,0.30
2017,08,14,05,30,0.00
2017,08,14,05,31,0.00
2017,08,14,05,32,0.00
2017,08,14,05,33,0.00
2017,08,14,05,34,0.00
2017,08,14,05,35,0.00
2017,08,14,05,36,0.00
2017,08,14,05,37,0.00
2017,08,14,05,38,0.00
2017,08,14,05,39,0.00
2017,08,14,05,40,0.00
2017,08,14,05,41,0.00
2017,08,14,05,42,0.00
2017,08,14,05,43,0.00
2017,08,14,05,44,0.00
2017,08,14,05,45,0.00
2017,08,14,05,46,2.40
2017,08,14,05,47,0.50
2017,08,14,05,48,0.00
2017,08,14,05,49,0.00
2017,08,14,05,50,1.60
2017,08,14,05,51,3.70
2017,08,14,05,52,2.10
2017,08,14,05,53,2.10
2017,08,14,05,54,1.80
2017,08,14,05,55,5.00
2017,08,14,05,56,5.40
2017,08,14,05,57,4.30
2017,08,14,05,58,2.50
2017,08,14,05,59,1.40
2017,08,14,06,00,0.00
2017,08,14,06,01,0.00
2017,08,14,06,02,0.00
2017,08,14,06,03,0.00
2017,08,14,06,04,0.00
2017,08,14,06,05,0.00
2017,08,14,06,06,0.00
2017,08,14,06,07,0.00
2017,08,14,06,08,0.00
2017,08,14,06,09,0.00
2017,08,14,06,10,0.00
2017,08,14,06,11,0.00
2017,08,14,06,12,0.00
2017,08,14,06,13,1.50
2017,08,14,06,14,1.40
2017,08,14,06,15,3.10
2017,08,14,06,16,1.70
2017,08,14,06,17,0.70
2017,08,14,06,18,0.30
2017,08,14,06,19,0.00
2017,08,14,06,20,0.00
2017,08,14,06,21,0.00
2017,08,14,06,22,0.90
2017,08,14,06,23,0.00
2017,08,14,06,24,0.00
2017,08,14,06,25,2.40
2017,08,14,06,26,0.20
2017,08,14,06,27,1.30
2017,08,14,06,28,0.20
2017,08,14,06,29,1.20
2017,08,14,06,30,0.90
2017,08,14,06,31,2.40
2017,08,14,06,32,1.10
2017,08,14,06,33,2.90
2017,08,14,06,34,1.20
2017,08,14,06,35,0.90
2017,08,14,06,36,2.30
2017,08,14,06,37,2.40
2017,08,14,06,38,1.70
2017,08,14,06,39,1.30
2017,08,14,06,40,3.40
2017,08,14,06,41,4.10
2017,08,14,06,42,3.40
2017,08,14,06,43,0.40
2017,08,14,06,44,0.10
2017,08,14,06,45,3.00
2017,08,14,06,46,1.20
2017,08,14,06,47,1.10
2017,08,14,06,48,1.00
2017,08,14,06,49,0.10
2017,08,14,06,50,0.10
2017,08,14,06,51,3.60
2017,08,14,06,52,3.90
2017,08,14,06,53,0.40
2017,08,14,06,54,0.10
2017,08,14,06,55,2.60
2017,08,14,06,56,1.90
2017,08,14,06,57,3.10
2017,08,14,06,58,2.80
2017,08,14,06,59,3.70
2017,08,14,07,00,1.80
2017,08,14,07,01,0.00
2017,08,14,07,02,1.00
2017,08,14,07,03,2.40
2017,08,14,07,04,2.40
2017,08,14,07,05,1.20
2017,08,14,07,06,2.30
2017,08,14,07,07,0.80
2017,08,14,07,08,0.60
2017,08,14,07,09,0.10
2017,08,14,07,10,2.10
2017,08,14,07,11,0.60
2017,08,14,07,12,0.30
2017,08,14,07,13,0.00
2017,08,14,07,14,0.00
2017,08,14,07,15,0.00
2017,08,14,07,16,0.00
2017,08,14,07,17,0.00
2017,08,14,07,18,0.00
2017,08,14,07,19,0.00
2017,08,14,07,20,0.00
2017,08,14,07,21,0.00
2017,08,14,07,22,0.00
2017,08,14,07,23,0.00
2017,08,14,07,24,0.00
2017,08,14,07,25,0.00
2017,08,14,07,26,0.00
2017,08,14,07,27,0.00
2017,08,14,07,28,0.00
2017,08,14,07,29,0.00
2017,08,14,07,30,0.00
2017,08,14,07,31,0.00
2017,08,14,07,32,0.00
2017,08,14,07,33,0.00
2017,08,14,07,34,0.00
2017,08,14,07,35,0.00
2017,08,14,07,36,1.00
2017,08,14,07,37,1.20
2017,08,14,07,38,0.10
2017,08,14,07,39,0.00
2017,08,14,07,40,0.70
2017,08,14,07,41,2.00
2017,08,14,07,42,2.40
2017,08,14,07,43,2.40
2017,08,14,07,44,1.20
2017,08,14,07,45,2.00
2017,08,14,07,46,0.80
2017,08,14,07,47,0.00
2017,08,14,07,48,0.00
2017,08,14,07,49,0.00
2017,08,14,07,50,0.00
2017,08,14,07,51,0.00
2017,08,14,07,52,0.00
2017,08,14,07,53,0.00
2017,08,14,07,54,0.00
2017,08,14,07,55,0.00
2017,08,14,07,56,1.20
2017,08,14,07,57,0.10
2017,08,14,07,58,0.70
2017,08,14,07,59,0.10
2017,08,14,08,00,0.00
2017,08,14,08,01,0.10
2017,08,14,08,02,0.00
2017,08,14,08,03,0.00
2017,08,14,08,04,0.00
2017,08,14,08,05,0.00
2017,08,14,08,06,0.10
2017,08,14,08,07,0.00
2017,08,14,08,08,0.00
2017,08,14,08,09,0.00
2017,08,14,08,10,0.00
2017,08,14,08,11,0.70
2017,08,14,08,12,0.00
2017,08,14,08,13,0.00
2017,08,14,08,14,0.00
2017,08,14,08,15,1.70
2017,08,14,08,16,1.20
2017,08,14,08,17,3.90
2017,08,14,08,18,3.00
2017,08,14,08,19,2.70
2017,08,14,08,20,2.60
2017,08,14,08,21,2.10
2017,08,14,08,22,1.90
2017,08,14,08,23,0.60
2017,08,14,08,24,1.10
2017,08,14,08,25,2.70
2017,08,14,08,26,2.80
2017,08,14,08,27,2.20
2017,08,14,08,28,1.20
2017,08,14,08,29,1.50
2017,08,14,08,30,2.90
2017,08,14,08,31,1.60
2017,08,14,08,32,2.10
2017,08,14,08,33,2.50
2017,08,14,08,34,1.90
2017,08,14,08,35,1.80
2017,08,14,08,36,2.00
2017,08,14,08,37,0.50
2017,08,14,08,38,2.20
2017,08,14,08,39,2.30
2017,08,14,08,40,0.50
2017,08,14,08,41,0.60
2017,08,14,08,42,1.90
2017,08,14,08,43,3.60
2017,08,14,08,44,2.20
2017,08,14,08,45,4.40
2017,08,14,08,46,3.30
2017,08,14,08,47,1.50
2017,08,14,08,48,2.30
2017,08,14,08,49,2.50
2017,08,14,08,50,0.90
2017,08,14,08,51,2.00
2017,08,14,08,52,1.00
2017,08,14,08,53,2.60
2017,08,14,08,54,0.90
2017,08,14,08,55,2.50
2017,08,14,08,56,3.10
2017,08,14,08,57,1.90
2017,08,14,08,58,3.70
2017,08,14,08,59,3.80
2017,08,14,09,00,4.30
2017,08,14,09,01,3.80
2017,08,14,09,02,3.90
2017,08,14,09,03,4.20
2017,08,14,09,04,3.70
2017,08,14,09,05,4.20
2017,08,14,09,06,4.50
2017,08,14,09,07,5.00
2017,08,14,09,08,5.40
2017,08,14,09,09,4.90
2017,08,14,09,10,5.60
2017,08,14,09,11,6.00
2017,08,14,09,12,4.30
2017,08,14,09,13,5.00
2017,08,14,09,14,3.90
2017,08,14,09,15,4.10
2017,08,14,09,16,5.20
2017,08,14,09,17,4.60
2017,08,14,09,18,3.50
2017,08,14,09,19,4.50
2017,08,14,09,20,3.80
2017,08,14,09,21,3.40
2017,08,14,09,22,2.10
2017,08,14,09,23,4.50
2017,08,14,09,24,3.80
2017,08,14,09,25,2.50
2017,08,14,09,26,3.40
2017,08,14,09,27,4.40
2017,08,14,09,28,5.30
2017,08,14,09,29,2.80
2017,08,14,09,30,6.70
2017,08,14,09,31,3.90
2017,08,14,09,32,3.90
2017,08,14,09,33,5.60
2017,08,14,09,34,4.60
2017,08,14,09,35,5.20
2017,08,14,09,36,4.40
2017,08,14,09,37,6.20
2017,08,14,09,38,7.50
2017,08,14,09,39,5.70
2017,08,14,09,40,6.40
2017,08,14,09,41,5.80
2017,08,14,09,42,3.90
2017,08,14,09,43,4.00
2017,08,14,09,44,5.10
2017,08,14,09,45,3.80
2017,08,14,09,46,5.90
2017,08,14,09,47,3.00
2017,08,14,09,48,3.90
2017,08,14,09,49,5.60
2017,08,14,09,50,6.50
2017,08,14,09,51,5.80
2017,08,14,09,52,5.00
2017,08,14,09,53,4.50
2017,08,14,09,54,4.50
2017,08,14,09,55,4.50
2017,08,14,09,56,4.60
2017,08,14,09,57,4.30
2017,08,14,09,58,6.10
2017,08,14,09,59,6.90
2017,08,14,10,00,5.00
2017,08,14,10,01,6.20
2017,08,14,10,02,4.30
2017,08,14,10,03,4.50
2017,08,14,10,04,4.70
2017,08,14,10,05,4.00
2017,08,14,10,06,4.10
2017,08,14,10,07,4.80
2017,08,14,10,08,4.30
2017,08,14,10,09,7.80
2017,08,14,10,10,4.20
2017,08,14,10,11,4.90
2017,08,14,10,12,5.70
2017,08,14,10,13,6.00
2017,08,14,10,14,6.70
2017,08,14,10,15,4.80
2017,08,14,10,16,6.30
2017,08,14,10,17,6.40
2017,08,14,10,18,5.10
2017,08,14,10,19,6.50
2017,08,14,10,20,7.40
2017,08,14,10,21,5.00
2017,08,14,10,22,5.20
2017,08,14,10,23,5.70
2017,08,14,10,24,4.80
2017,08,14,10,25,3.00
2017,08,14,10,26,5.60
2017,08,14,10,27,6.90
2017,08,14,10,28,5.90
2017,08,14,10,29,5.40
2017,08,14,10,30,5.10
2017,08,14,10,31,3.10
2017,08,14,10,32,6.40
2017,08,14,10,33,5.20
2017,08,14,10,34,6.90
2017,08,14,10,35,4.90
2017,08,14,10,36,4.50
2017,08,14,10,37,4.90
2017,08,14,10,38,6.10
2017,08,14,10,39,5.10
2017,08,14,10,40,4.00
2017,08,14,10,41,2.40
2017,08,14,10,42,3.10
2017,08,14,10,43,3.00
2017,08,14,10,44,5.40
2017,08,14,10,45,7.20
2017,08,14,10,46,7.50
2017,08,14,10,47,6.20
2017,08,14,10,48,4.50
2017,08,14,10,49,6.70
2017,08,14,10,50,7.30
2017,08,14,10,51,5.90
2017,08,14,10,52,5.80
2017,08,14,10,53,6.80
2017,08,14,10,54,8.50
2017,08,14,10,55,8.10
2017,08,14,10,56,6.90
2017,08,14,10,57,8.00
2017,08,14,10,58,9.20
2017,08,14,10,59,7.10
2017,08,14,11,00,6.60
2017,08,14,11,01,8.10
2017,08,14,11,02,7.80
2017,08,14,11,03,5.40
2017,08,14,11,04,6.00
2017,08,14,11,05,6.10
2017,08,14,11,06,5.80
2017,08,14,11,07,8.20
2017,08,14,11,08,7.00
2017,08,14,11,09,8.10
2017,08,14,11,10,9.00
2017,08,14,11,11,6.80
2017,08,14,11,12,8.00
2017,08,14,11,13,8.10
2017,08,14,11,14,6.20
2017,08,14,11,15,6.30
2017,08,14,11,16,7.80
2017,08,14,11,17,10.90
2017,08,14,11,18,10.00
2017,08,14,11,19,6.10
2017,08,14,11,20,9.00
2017,08,14,11,21,9.00
2017,08,14,11,22,5.20
2017,08,14,11,23,6.50
2017,08,14,11,24,8.00
2017,08,14,11,25,7.30
2017,08,14,11,26,9.20
2017,08,14,11,27,7.50
2017,08,14,11,28,9.50
2017,08,14,11,29,9.60
2017,08,14,11,30,5.90
2017,08,14,11,31,5.20
2017,08,14,11,32,7.30
2017,08,14,11,33,11.30
2017,08,14,11,34,7.60
2017,08,14,11,35,9.30
2017,08,14,11,36,10.40
2017,08,14,11,37,7.10
2017,08,14,11,38,4.20
2017,08,14,11,39,4.20
2017,08,14,11,40,5.60
2017,08,14,11,41,3.90
2017,08,14,11,42,6.40
2017,08,14,11,43,7.80
2017,08,14,11,44,4.60
2017,08,14,11,45,5.10
2017,08,14,11,46,8.10
2017,08,14,11,47,5.80
2017,08,14,11,48,7.10
2017,08,14,11,49,8.50
2017,08,14,11,50,7.80
2017,08,14,11,51,6.40
2017,08,14,11,52,7.20
2017,08,14,11,53,7.20
2017,08,14,11,54,4.90
2017,08,14,11,55,4.80
2017,08,14,11,56,5.60
2017,08,14,11,57,4.80
2017,08,14,11,58,5.10
2017,08,14,11,59,8.20
2017,08,14,12,00,7.50
2017,08,14,12,01,6.40
2017,08,14,12,02,6.40
2017,08,14,12,03,5.80
2017,08,14,12,04,6.50
2017,08,14,12,05,7.20
2017,08,14,12,06,4.00
2017,08,14,12,07,8.20
2017,08,14,12,08,7.30
2017,08,14,12,09,5.30
2017,08,14,12,10,5.70
2017,08,14,12,11,5.90
2017,08,14,12,12,6.00
2017,08,14,12,13,6.70
2017,08,14,12,14,7.10
2017,08,14,12,15,7.10
2017,08,14,12,16,6.60
2017,08,14,12,17,7.50
2017,08,14,12,18,6.10
2017,08,14,12,19,7.80
2017,08,14,12,20,6.80
2017,08,14,12,21,7.70
2017,08,14,12,22,6.00
2017,08,14,12,23,4.10
2017,08,14,12,24,3.90
2017,08,14,12,25,4.20
2017,08,14,12,26,4.30
2017,08,14,12,27,5.70
2017,08,14,12,28,2.60
2017,08,14,12,29,7.90
2017,08,14,12,30,8.10
2017,08,14,12,31,6.80
2017,08,14,12,32,5.10
2017,08,14,12,33,4.00
2017,08,14,12,34,6.00
2017,08,14,12,35,7.20
2017,08,14,12,36,6.60
2017,08,14,12,37,7.80
2017,08,14,12,38,6.80
2017,08,14,12,39,6.40
2017,08,14,12,40,6.40
2017,08,14,12,41,5.70
2017,08,14,12,42,6.20
2017,08,14,12,43,4.50
2017,08,14,12,44,3.60
2017,08,14,12,45,7.70
2017,08,14,12,46,7.30
2017,08,14,12,47,4.40
2017,08,14,12,48,3.10
2017,08,14,12,49,2.70
2017,08,14,12,50,7.20
2017,08,14,12,51,7.70
2017,08,14,12,52,6.30
2017,08,14,12,53,7.90
2017,08,14,12,54,6.90
2017,08,14,12,55,9.20
2017,08,14,12,56,5.90
2017,08,14,12,57,1.80
2017,08,14,12,58,7.70
2017,08,14,12,59,6.90
2017,08,14,13,00,4.10
2017,08,14,13,01,5.60
2017,08,14,13,02,5.80
2017,08,14,13,03,5.60
2017,08,14,13,04,9.00
2017,08,14,13,05,8.00
2017,08,14,13,06,2.50
2017,08,14,13,07,12.10
2017,08,14,13,08,8.20
2017,08,14,13,09,10.90
2017,08,14,13,10,8.90
2017,08,14,13,11,5.30
2017,08,14,13,12,10.00
2017,08,14,13,13,8.70
2017,08,14,13,14,4.10
2017,08,14,13,15,7.50
2017,08,14,13,16,7.50
2017,08,14,13,17,5.50
2017,08,14,13,18,4.60
2017,08,14,13,19,11.10
2017,08,14,13,20,6.10
2017,08,14,13,21,3.60
2017,08,14,13,22,5.20
2017,08,14,13,23,5.70
2017,08,14,13,24,3.70
2017,08,14,13,25,3.60
2017,08,14,13,26,8.50
2017,08,14,13,27,8.50
2017,08,14,13,28,7.90
2017,08,14,13,29,5.80
2017,08,14,13,30,5.00
2017,08,14,13,31,3.80
2017,08,14,13,32,4.70
2017,08,14,13,33,9.20
2017,08,14,13,34,6.00
2017,08,14,13,35,2.50
2017,08,14,13,36,4.20
2017,08,14,13,37,3.10
2017,08,14,13,38,4.20
2017,08,14,13,39,8.00
2017,08,14,13,40,5.80
2017,08,14,13,41,6.50
2017,08,14,13,42,5.10
2017,08,14,13,43,8.30
2017,08,14,13,44,6.10
2017,08,14,13,45,4.20
2017,08,14,13,46,7.90
2017,08,14,13,47,6.90
2017,08,14,13,48,6.00
2017,08,14,13,49,4.30
2017,08,14,13,50,6.60
2017,08,14,13,51,7.70
2017,08,14,13,52,5.10
2017,08,14,13,53,4.50
2017,08,14,13,54,8.30
2017,08,14,13,55,6.50
2017,08,14,13,56,8.70
2017,08,14,13,57,9.20
2017,08,14,13,58,9.00
2017,08,14,13,59,7.90
2017,08,14,14,00,5.30
2017,08,14,14,01,5.10
2017,08,14,14,02,6.90
2017,08,14,14,03,3.50
2017,08,14,14,04,6.50
2017,08,14,14,05,7.50
2017,08,14,14,06,7.90
2017,08,14,14,07,11.00
2017,08,14,14,08,7.60
2017,08,14,14,09,10.40
2017,08,14,14,10,7.80
2017,08,14,14,11,11.30
2017,08,14,14,12,3.90
2017,08,14,14,13,7.80
2017,08,14,14,14,3.60
2017,08,14,14,15,7.00
2017,08,14,14,16,12.60
2017,08,14,14,17,8.60
2017,08,14,14,18,9.40
2017,08,14,14,19,7.10
2017,08,14,14,20,8.60
2017,08,14,14,21,10.10
2017,08,14,14,22,10.90
2017,08,14,14,23,6.40
2017,08,14,14,24,7.60
2017,08,14,14,25,7.50
2017,08,14,14,26,9.70
2017,08,14,14,27,8.30
2017,08,14,14,28,13.70
2017,08,14,14,29,4.30
2017,08,14,14,30,4.10
2017,08,14,14,31,3.80
2017,08,14,14,32,3.70
2017,08,14,14,33,6.90
2017,08,14,14,34,8.30
2017,08,14,14,35,5.40
2017,08,14,14,36,5.70
2017,08,14,14,37,10.50
2017,08,14,14,38,10.30
2017,08,14,14,39,7.80
2017,08,14,14,40,6.90
2017,08,14,14,41,8.90
2017,08,14,14,42,8.80
2017,08,14,14,43,7.10
2017,08,14,14,44,4.50
2017,08,14,14,45,2.90
2017,08,14,14,46,3.80
2017,08,14,14,47,4.40
2017,08,14,14,48,3.10
2017,08,14,14,49,2.80
2017,08,14,14,50,4.80
2017,08,14,14,51,7.40
2017,08,14,14,52,6.70
2017,08,14,14,53,7.40
2017,08,14,14,54,8.70
2017,08,14,14,55,6.90
2017,08,14,14,56,5.80
2017,08,14,14,57,3.40
2017,08,14,14,58,7.20
2017,08,14,14,59,10.20
2017,08,14,15,00,10.40
2017,08,14,15,01,10.10
2017,08,14,15,02,8.70
2017,08,14,15,03,15.10
2017,08,14,15,04,10.10
2017,08,14,15,05,10.50
2017,08,14,15,06,9.80
2017,08,14,15,07,8.80
2017,08,14,15,08,8.70
2017,08,14,15,09,6.40
2017,08,14,15,10,3.10
2017,08,14,15,11,5.70
2017,08,14,15,12,6.40
2017,08,14,15,13,8.40
2017,08,14,15,14,12.60
2017,08,14,15,15,8.60
2017,08,14,15,16,9.50
2017,08,14,15,17,9.70
2017,08,14,15,18,10.10
2017,08,14,15,19,11.20
2017,08,14,15,20,9.50
2017,08,14,15,21,10.00
2017,08,14,15,22,7.50
2017,08,14,15,23,7.20
2017,08,14,15,24,6.70
2017,08,14,15,25,8.70
2017,08,14,15,26,6.90
2017,08,14,15,27,9.50
2017,08,14,15,28,6.60
2017,08,14,15,29,7.40
2017,08,14,15,30,6.10
2017,08,14,15,31,6.40
2017,08,14,15,32,6.40
2017,08,14,15,33,9.20
2017,08,14,15,34,8.60
2017,08,14,15,35,9.70
2017,08,14,15,36,9.70
2017,08,14,15,37,10.40
2017,08,14,15,38,7.40
2017,08,14,15,39,7.50
2017,08,14,15,40,9.20
2017,08,14,15,41,9.70
2017,08,14,15,42,5.60
2017,08,14,15,43,7.70
2017,08,14,15,44,4.60
2017,08,14,15,45,8.60
2017,08,14,15,46,10.80
2017,08,14,15,47,6.20
2017,08,14,15,48,5.10
2017,08,14,15,49,5.70
2017,08,14,15,50,4.60
2017,08,14,15,51,8.50
2017,08,14,15,52,7.50
2017,08,14,15,53,10.90
2017,08,14,15,54,8.20
2017,08,14,15,55,11.80
2017,08,14,15,56,10.50
2017,08,14,15,57,9.70
2017,08,14,15,58,7.90
2017,08,14,15,59,9.60
2017,08,14,16,00,8.60
2017,08,14,16,01,9.70
2017,08,14,16,02,7.00
2017,08,14,16,03,10.10
2017,08,14,16,04,10.90
2017,08,14,16,05,6.60
2017,08,14,16,06,6.90
2017,08,14,16,07,7.70
2017,08,14,16,08,10.20
2017,08,14,16,09,5.40
2017,08,14,16,10,9.30
2017,08,14,16,11,5.60
2017,08,14,16,12,5.50
2017,08,14,16,13,7.40
2017,08,14,16,14,4.80
2017,08,14,16,15,6.10
2017,08,14,16,16,6.60
2017,08,14,16,17,5.80
2017,08,14,16,18,4.10
2017,08,14,16,19,2.60
2017,08,14,16,20,4.20
2017,08,14,16,21,6.00
2017,08,14,16,22,2.60
2017,08,14,16,23,6.80
2017,08,14,16,24,4.40
2017,08,14,16,25,3.00
2017,08,14,16,26,6.80
2017,08,14,16,27,5.80
2017,08,14,16,28,3.50
2017,08,14,16,29,4.40
2017,08,14,16,30,2.90
2017,08,14,16,31,3.40
2017,08,14,16,32,3.90
2017,08,14,16,33,5.40
2017,08,14,16,34,7.50
2017,08,14,16,35,7.00
2017,08,14,16,36,7.80
2017,08,14,16,37,10.00
2017,08,14,16,38,14.40
2017,08,14,16,39,11.20
2017,08,14,16,40,11.60
2017,08,14,16,41,11.40
2017,08,14,16,42,9.90
2017,08,14,16,43,11.30
2017,08,14,16,44,12.60
2017,08,14,16,45,10.90
2017,08,14,16,46,8.30
2017,08,14,16,47,10.20
2017,08,14,16,48,8.90
2017,08,14,16,49,9.40
2017,08,14,16,50,12.00
2017,08,14,16,51,8.60
2017,08,14,16,52,9.10
2017,08,14,16,53,10.80
2017,08,14,16,54,9.70
2017,08,14,16,55,9.20
2017,08,14,16,56,9.30
2017,08,14,16,57,4.10
2017,08,14,16,58,3.10
2017,08,14,16,59,6.10
2017,08,14,17,00,7.70
2017,08,14,17,01,6.20
2017,08,14,17,02,5.90
2017,08,14,17,03,5.50
2017,08,14,17,04,4.60
2017,08,14,17,05,6.70
2017,08,14,17,06,6.10
2017,08,14,17,07,6.00
2017,08,14,17,08,7.00
2017,08,14,17,09,3.40
2017,08,14,17,10,5.60
2017,08,14,17,11,3.50
2017,08,14,17,12,5.20
2017,08,14,17,13,3.20
2017,08,14,17,14,4.50
2017,08,14,17,15,1.50
2017,08,14,17,16,2.70
2017,08,14,17,17,1.30
2017,08,14,17,18,7.40
2017,08,14,17,19,6.60
2017,08,14,17,20,9.90
2017,08,14,17,21,8.90
2017,08,14,17,22,8.60
2017,08,14,17,23,4.10
2017,08,14,17,24,5.30
2017,08,14,17,25,2.60
2017,08,14,17,26,3.80
2017,08,14,17,27,3.50
2017,08,14,17,28,5.50
2017,08,14,17,29,8.30
2017,08,14,17,30,5.90
2017,08,14,17,31,6.70
2017,08,14,17,32,7.40
2017,08,14,17,33,4.80
2017,08,14,17,34,6.30
2017,08,14,17,35,1.90
2017,08,14,17,36,8.60
2017,08,14,17,37,6.40
2017,08,14,17,38,5.00
2017,08,14,17,39,3.70
2017,08,14,17,40,5.60
2017,08,14,17,41,4.90
2017,08,14,17,42,6.60
2017,08,14,17,43,7.00
2017,08,14,17,44,6.80
2017,08,14,17,45,5.00
2017,08,14,17,46,7.70
2017,08,14,17,47,7.00
2017,08,14,17,48,6.00
2017,08,14,17,49,7.20
2017,08,14,17,50,6.30
2017,08,14,17,51,7.40
2017,08,14,17,52,7.20
2017,08,14,17,53,7.20
2017,08,14,17,54,7.20
2017,08,14,17,55,7.90
2017,08,14,17,56,4.60
2017,08,14,17,57,5.60
2017,08,14,17,58,8.20
2017,08,14,17,59,3.90
2017,08,14,18,00,4.90
2017,08,14,18,01,3.70
2017,08,14,18,02,4.80
2017,08,14,18,03,6.10
2017,08,14,18,04,7.80